Location: Home
(42.5358°N, 72.7383°W)
Time: 00:12:23
(UTC-04:00)

DELTA 1 DEB - Pass Details

Date: 29 June 2022
Orbit: 600 x 774 km, 98.5° (Epoch: 16 August)

Event Time Altitude Azimuth Distance (km) Brightness Sun altitude
Exits shadow 22:15:58 23° 134° (SE) 1,606 ? -14.8°
Maximum altitude 22:18:56 48° 71° (ENE) 986 ? -15.1°
Drops below altitude 10° 22:23:44 10° 358° (N) 2,267 ? -15.7°
Sets 22:26:03 0° 353° (N) 3,172 ? -15.9°
